Weather History for KBJJ - November, 2012

Change the Weather History Date:

Wednesday, November 7, 2012

  Actual Average Record
Temperature  
Mean Temperature 36 °F -  
Max Temperature 46 °F 50 °F 64 °F (2001)
Min Temperature 25 °F 33 °F 25 °F (2012)
Degree Days  
Heating Degree Days 30    
Moisture  
Dew Point 26 °F    
Average Humidity 73    
Maximum Humidity 89    
Minimum Humidity 46    
Precipitation  
Precipitation 0.00 in - - ()
Sea Level Pressure  
Sea Level Pressure 30.02 in    
Wind  
Wind Speed 5 mph (NE)    
Max Wind Speed 12 mph    
Max Gust Speed -    
Visibility 9 miles    
Events      
Averages and records for this station are not official NWS values.
T = Trace of Precipitation, MM = Missing Value Source: NWS Daily Summary

Daily Weather History Graph

Daily Weather History Graph

Search for Another Location

Airport or City:

Trip Planner

Search our weather history database for the weather conditions in past years. The results will help you decide how hot, cold, wet, or windy it might be!

Date:

Astronomy

Nov. 07, 2012 Rise Set
Actual Time 7:05 AM EST 5:16 PM EST
Civil Twilight 6:36 AM EST 5:45 PM EST
Nautical Twilight 6:04 AM EST 6:17 PM EST
Astronomical Twilight 5:31 AM EST 6:49 PM EST
Moon No Moon Rise 1:27 PM EST (11/7)
Length of Visible Light 11h 08m
Length of Day
10h 10m
Last Quarter, 43% of the Moon is Illuminated
Nov 7
Last Quarter
Nov 13
New
Nov 20
First Quarter
Nov 28
Full
Dec 6
Last Quarter

Hourly Weather History & Observations

Time (EST) Temp. Windchill Dew Point Humidity Pressure Visibility Wind Dir Wind Speed Gust Speed Precip Events Conditions
12:56 AM 25.0 °F - 21.9 °F 88% 29.96 in 9.0 mi Calm Calm - N/A   Clear
1:56 AM 27.0 °F - 24.1 °F 89% 29.95 in 9.0 mi Calm Calm - N/A   Clear
2:56 AM 30.9 °F 25.2 °F 26.1 °F 82% 29.96 in 9.0 mi East 5.8 mph - N/A   Clear
3:56 AM 28.9 °F 25.2 °F 26.1 °F 89% 29.95 in 9.0 mi ENE 3.5 mph - N/A   Clear
4:56 AM 27.0 °F 21.6 °F 24.1 °F 89% 29.96 in 8.0 mi ENE 4.6 mph - N/A   Clear
5:56 AM 27.0 °F 21.6 °F 24.1 °F 89% 29.97 in 8.0 mi East 4.6 mph - N/A   Clear
6:56 AM 26.1 °F 19.4 °F 23.0 °F 88% 29.99 in 8.0 mi East 5.8 mph - N/A   Clear
7:56 AM 27.0 °F 21.6 °F 24.1 °F 89% 30.01 in 7.0 mi ENE 4.6 mph - N/A   Clear
8:56 AM 33.1 °F 26.1 °F 28.0 °F 82% 30.02 in 8.0 mi East 8.1 mph - N/A   Clear
9:56 AM 37.0 °F 30.4 °F 28.9 °F 73% 30.03 in 8.0 mi ENE 9.2 mph - N/A   Clear
10:56 AM 41.0 °F 35.2 °F 28.0 °F 60% 30.01 in 10.0 mi ENE 9.2 mph - N/A   Clear
11:56 AM 44.1 °F 39.5 °F 28.0 °F 53% 30.01 in 10.0 mi NE 8.1 mph - N/A   Clear
12:56 PM 46.0 °F 41.4 °F 27.0 °F 47% 29.99 in 10.0 mi NE 9.2 mph - N/A   Clear
1:56 PM 46.0 °F 42.5 °F 26.1 °F 46% 29.99 in 10.0 mi NE 6.9 mph - N/A   Clear
2:56 PM 46.9 °F - 27.0 °F 46% 29.99 in 10.0 mi NE 6.9 mph - N/A   Clear
3:56 PM 46.9 °F - 27.0 °F 46% 30.00 in 10.0 mi NE 6.9 mph - N/A   Clear
4:56 PM 43.0 °F 36.8 °F 28.0 °F 56% 30.04 in 10.0 mi North 11.5 mph - N/A   Clear
5:56 PM 37.9 °F 30.9 °F 28.9 °F 70% 30.06 in 10.0 mi North 10.4 mph - N/A   Clear
6:56 PM 36.0 °F 29.6 °F 28.0 °F 73% 30.08 in 10.0 mi North 8.1 mph - N/A   Clear
7:56 PM 33.1 °F 26.1 °F 28.0 °F 82% 30.09 in 10.0 mi North 8.1 mph - N/A   Clear
8:56 PM 32.0 °F 25.6 °F 26.1 °F 79% 30.10 in 10.0 mi North 6.9 mph - N/A   Clear
9:56 PM 30.9 °F 23.5 °F 25.0 °F 79% 30.11 in 10.0 mi North 8.1 mph - N/A   Clear
10:56 PM 30.9 °F 26.2 °F 25.0 °F 79% 30.11 in 10.0 mi North 4.6 mph - N/A   Clear
11:56 PM 30.0 °F 24.1 °F 25.0 °F 82% 30.12 in 10.0 mi North 5.8 mph - N/A   Clear